Vorticity
13 12 2 -1 3 1 14 15 23 -1 5 12 17 7 14 10 8 11 12 12 10 8 7 8 8 5 7 6 6 7 6 8 6 3 5 7 7 6 9 6 5 6 12 8
9 15 1 1 7 2 1 13 11 11 -0 29 12 3 6 18 18 9 12 15 12 6 10 7 6 7 7 7 7 8 7 7 5 4 4 6 8 6 8 6 8 9 14 8
9 13 9 14 6 8 4 5 20 16 15 6 -1 12 10 -1 6 20 15 11 10 7 11 6 5 7 8 7 7 8 9 9 4 6 3 6 4 9 7 7 8 7 6 13
5 8 6 19 6 6 7 7 6 22 21 14 6 10 21 8 4 18 12 9 11 10 8 6 8 6 9 6 5 8 9 9 7 4 6 5 5 6 6 10 4 9 10 10
16 -2 1 10 4 7 9 6 13 16 8 16 11 9 21 3 8 11 14 10 8 12 6 6 10 7 9 5 5 9 9 8 9 4 7 3 6 6 7 8 3 10 7 10
13 4 10 12 10 11 1 9 14 16 16 9 13 3 6 26 6 12 13 12 9 7 8 8 8 8 6 4 5 9 9 8 10 5 5 4 4 5 8 6 8 6 8 8
8 10 12 3 6 10 7 12 21 20 14 16 3 7 18 4 13 7 15 12 8 11 8 8 8 9 7 7 8 10 8 8 8 7 5 5 4 5 5 8 6 6 8 8
9 6 15 15 7 10 11 16 24 16 13 21 20 5 17 11 4 13 8 12 11 6 7 7 11 11 9 15 12 9 7 9 8 5 4 5 4 5 5 6 6 5 7 7
6 8 12 10 4 8 15 9 17 10 20 11 12 21 -3 13 11 12 4 6 13 13 14 8 9 7 10 11 9 9 12 10 7 6 4 4 4 4 5 5 5 6 6 7
16 14 13 12 8 11 15 5 8 11 11 15 7 17 12 9 17 11 13 3 5 15 17 13 8 10 10 9 9 8 12 11 6 6 4 4 6 5 5 5 4 6 6 6
8 6 13 14 13 9 16 7 7 14 5 18 25 -5 9 19 14 6 10 9 4 5 13 11 10 12 12 11 12 12 9 9 6 5 6 4 5 6 3 5 4 5 6 5
9 9 11 9 11 13 15 5 5 10 15 5 21 15 -4 9 15 17 13 8 4 6 8 8 11 11 9 14 11 15 15 7 5 3 5 5 3 6 6 5 4 5 7 5
8 11 9 8 9 12 12 14 1 -0 13 12 14 31 19 1 -4 6 13 23 12 2 7 8 14 8 11 10 12 10 9 7 7 4 5 5 4 4 7 5 6 6 7 6
12 13 11 15 16 13 11 9 12 2 12 11 4 9 21 22 7 -1 6 20 19 6 6 11 11 9 8 10 10 9 12 8 6 8 6 6 4 6 6 6 6 7 7 7
10 18 13 9 10 12 13 12 10 8 6 8 5 3 10 13 21 26 -4 3 15 22 7 12 8 10 7 5 10 7 14 8 9 10 11 9 10 6 7 7 5 5 6 8
8 13 10 11 15 12 8 1 8 10 11 14 8 8 8 9 17 29 18 -6 2 4 18 10 11 9 8 8 6 5 5 7 7 8 9 7 8 6 7 6 5 4 5 8
11 9 13 2 6 10 9 7 7 7 4 8 14 14 11 7 5 19 18 23 5 6 10 13 15 8 6 11 6 8 4 5 5 7 9 9 8 6 9 5 4 4 5 7
8 13 12 9 6 6 9 10 7 3 2 6 6 6 9 7 6 18 12 16 19 11 12 15 14 12 9 7 1 12 3 5 6 8 8 8 11 8 8 7 4 4 4 5
3 5 10 8 14 4 4 15 16 18 16 21 19 20 15 15 10 13 13 9 14 7 4 8 16 10 20 9 11 17 1 5 5 6 8 8 11 8 6 8 6 3 3 4
7 3 15 12 10 7 24 27 17 11 10 8 8 18 18 15 12 15 15 17 1 11 8 11 1 10 11 11 29 5 -0 7 5 5 7 8 10 9 5 7 8 5 4 4
2 4 8 7 17 19 6 5 9 20 26 23 14 6 23 13 10 17 1 9 13 18 -2 5 9 12 12 32 12 -2 9 11 7 5 6 7 9 10 5 9 8 8 5 4
3 6 7 15 15 3 17 21 18 15 13 17 15 23 20 20 10 7 9 11 8 6 17 18 4 9 20 1 2 8 9 13 9 5 6 7 9 7 6 5 7 7 6 5
4 4 19 12 9 15 13 15 23 23 23 23 17 15 15 11 12 9 8 12 13 5 4 11 18 9 5 7 8 11 8 12 10 7 9 6 11 6 3 2 5 8 5 5
7 16 9 11 11 22 29 24 24 24 26 24 13 12 10 10 7 2 2 15 7 10 -4 17 6 9 7 5 7 5 11 11 11 7 7 6 10 9 7 5 5 8 5 5
13 11 16 26 21 28 18 22 19 5 12 21 23 19 16 10 3 14 17 10 8 9 6 8 9 -1 5 3 12 9 14 13 9 7 7 5 4 4 6 5 7 8 5 6
8 15 28 28 20 15 15 5 -3 20 27 25 25 7 5 7 5 3 7 13 5 3 4 11 9 13 0 -0 9 11 17 10 8 8 7 5 4 -0 3 5 8 8 5 9
25 30 36 13 10 7 -6 26 53 40 33 33 25 7 0 0 7 2 3 5 8 7 4 9 9 12 7 -0 4 11 15 7 10 8 8 3 6 6 7 7 9 6 8 9
Height
5751 5745 5738 5732 5725 5717 5711 5704 5699 5692 5687 5683 5678 5675 5671 5667 5663 5660 5657 5654 5652 5650 5647 5644 5641 5637 5631 5626 5621 5616 5609 5602 5596 5588 5579 5570 5559 5548 5536 5524 5512 5498 5486 5474
5745 5738 5732 5727 5721 5715 5708 5701 5695 5689 5684 5679 5676 5671 5667 5663 5659 5655 5652 5650 5648 5645 5641 5639 5635 5631 5626 5621 5616 5611 5605 5598 5591 5584 5576 5567 5559 5548 5536 5526 5515 5503 5489 5478
5739 5733 5727 5721 5716 5710 5703 5697 5691 5685 5679 5676 5673 5668 5664 5659 5655 5651 5647 5645 5642 5640 5636 5632 5629 5625 5622 5616 5611 5606 5602 5595 5588 5581 5574 5566 5556 5549 5537 5526 5516 5506 5495 5484
5734 5728 5722 5716 5710 5704 5699 5693 5686 5679 5674 5670 5667 5663 5658 5655 5650 5646 5642 5640 5637 5634 5632 5629 5625 5621 5617 5612 5606 5602 5598 5593 5586 5578 5572 5565 5557 5547 5538 5528 5518 5506 5496 5484
5727 5723 5717 5711 5705 5699 5693 5688 5682 5676 5670 5664 5661 5657 5654 5650 5646 5642 5637 5635 5632 5629 5626 5623 5618 5615 5611 5606 5603 5598 5593 5587 5583 5577 5570 5562 5554 5546 5537 5529 5518 5508 5497 5487
5720 5716 5711 5705 5700 5694 5687 5682 5677 5670 5665 5660 5656 5653 5648 5645 5641 5637 5632 5629 5626 5624 5621 5617 5613 5609 5605 5599 5595 5591 5587 5582 5578 5572 5565 5558 5552 5544 5537 5527 5518 5507 5497 5489
5714 5710 5704 5698 5694 5688 5682 5676 5670 5665 5660 5654 5650 5646 5643 5640 5635 5631 5626 5623 5621 5619 5615 5612 5608 5604 5600 5595 5589 5585 5581 5577 5572 5569 5562 5555 5548 5540 5533 5527 5517 5508 5498 5488
5708 5704 5699 5693 5687 5682 5676 5670 5664 5658 5653 5648 5643 5641 5637 5633 5629 5626 5621 5618 5615 5611 5609 5605 5603 5599 5596 5591 5586 5581 5576 5572 5565 5560 5556 5553 5545 5537 5530 5524 5518 5507 5499 5489
5702 5697 5692 5687 5680 5675 5669 5664 5658 5653 5647 5643 5638 5634 5631 5627 5623 5620 5616 5612 5608 5605 5601 5598 5595 5591 5586 5584 5581 5577 5572 5567 5562 5557 5552 5545 5541 5534 5527 5521 5515 5506 5498 5488
5697 5690 5684 5679 5674 5668 5663 5657 5652 5647 5642 5637 5632 5628 5624 5620 5616 5613 5610 5606 5602 5598 5595 5591 5588 5586 5580 5576 5571 5567 5565 5562 5557 5552 5547 5544 5536 5531 5523 5518 5514 5504 5496 5487
5691 5685 5678 5672 5666 5661 5656 5651 5646 5641 5637 5630 5626 5622 5618 5614 5610 5607 5604 5601 5597 5593 5588 5585 5581 5578 5575 5571 5567 5560 5558 5554 5552 5547 5541 5537 5530 5525 5520 5515 5507 5500 5493 5486
5684 5677 5671 5665 5659 5653 5649 5644 5639 5635 5630 5626 5620 5616 5612 5608 5604 5599 5597 5593 5588 5586 5581 5579 5574 5570 5567 5564 5559 5557 5554 5550 5547 5542 5536 5531 5526 5521 5515 5509 5503 5497 5490 5482
5677 5670 5663 5658 5652 5646 5642 5637 5632 5628 5624 5620 5614 5609 5605 5601 5597 5594 5590 5586 5581 5578 5574 5571 5568 5563 5560 5557 5554 5550 5547 5543 5541 5536 5531 5527 5521 5515 5510 5504 5498 5493 5486 5478
5670 5663 5656 5650 5644 5639 5635 5630 5624 5620 5615 5612 5610 5603 5598 5592 5588 5585 5582 5578 5574 5570 5566 5564 5561 5557 5554 5551 5547 5543 5540 5537 5534 5530 5525 5522 5516 5511 5506 5500 5494 5487 5480 5474
5661 5656 5649 5643 5637 5632 5626 5621 5616 5611 5607 5603 5601 5597 5592 5584 5578 5575 5573 5569 5566 5563 5560 5556 5553 5551 5546 5544 5540 5535 5534 5530 5526 5522 5518 5513 5509 5504 5499 5493 5487 5481 5474 5468
5654 5647 5642 5636 5629 5623 5618 5614 5610 5602 5596 5591 5589 5588 5584 5576 5570 5564 5562 5560 5558 5555 5551 5548 5546 5542 5539 5537 5534 5531 5527 5523 5519 5515 5510 5505 5501 5496 5491 5486 5480 5474 5467 5460
5646 5640 5633 5628 5621 5614 5608 5601 5596 5591 5586 5580 5577 5574 5573 5567 5561 5556 5552 5549 5547 5546 5543 5540 5537 5535 5530 5529 5525 5523 5520 5516 5511 5506 5503 5500 5494 5488 5483 5478 5472 5466 5460 5453
5637 5630 5624 5618 5611 5605 5598 5591 5585 5578 5573 5570 5564 5563 5559 5556 5552 5547 5543 5539 5536 5535 5533 5531 5528 5526 5522 5520 5518 5515 5511 5508 5504 5499 5494 5490 5486 5481 5475 5470 5464 5459 5451 5444
5627 5620 5613 5607 5600 5592 5586 5580 5573 5568 5563 5554 5552 5549 5544 5542 5539 5536 5533 5529 5527 5527 5524 5521 5520 5518 5514 5510 5509 5506 5503 5499 5496 5491 5487 5482 5477 5471 5466 5460 5454 5449 5442 5434
5613 5608 5601 5592 5585 5577 5570 5565 5559 5554 5550 5545 5540 5534 5531 5529 5525 5524 5521 5519 5517 5516 5516 5512 5511 5508 5504 5501 5499 5495 5493 5489 5485 5481 5477 5472 5468 5462 5457 5450 5444 5438 5431 5425
5599 5592 5585 5577 5568 5561 5553 5547 5542 5535 5530 5527 5522 5520 5517 5515 5513 5511 5509 5506 5503 5504 5506 5502 5501 5497 5494 5491 5488 5485 5483 5479 5475 5470 5466 5461 5456 5452 5447 5441 5435 5428 5421 5413
5582 5574 5565 5558 5551 5542 5538 5529 5524 5518 5514 5509 5505 5503 5503 5502 5499 5498 5497 5494 5493 5492 5491 5491 5489 5487 5483 5481 5477 5474 5471 5468 5465 5460 5456 5451 5446 5442 5437 5430 5423 5416 5409 5401
5564 5554 5548 5541 5530 5524 5514 5509 5504 5500 5496 5493 5490 5488 5487 5487 5485 5483 5482 5480 5481 5481 5481 5480 5478 5475 5473 5470 5467 5463 5459 5457 5454 5449 5444 5440 5435 5431 5425 5419 5412 5404 5397 5389
5546 5535 5527 5521 5512 5504 5493 5488 5484 5481 5477 5474 5472 5470 5469 5470 5469 5470 5467 5466 5468 5470 5472 5469 5466 5464 5461 5458 5455 5452 5450 5447 5441 5437 5433 5428 5424 5418 5413 5406 5399 5391 5383 5376
5527 5517 5506 5497 5489 5484 5475 5470 5466 5463 5459 5455 5452 5451 5452 5452 5452 5454 5455 5455 5456 5458 5458 5455 5453 5451 5449 5447 5444 5441 5437 5433 5429 5426 5421 5416 5411 5406 5400 5393 5386 5378 5371 5363
5508 5502 5491 5478 5466 5464 5458 5450 5445 5441 5437 5436 5435 5432 5432 5433 5435 5438 5442 5443 5445 5445 5442 5440 5440 5440 5439 5436 5433 5429 5425 5420 5417 5413 5409 5404 5399 5393 5387 5380 5373 5366 5358 5350
5487 5477 5468 5456 5447 5439 5434 5426 5416 5411 5411 5412 5413 5414 5415 5416 5413 5422 5428 5428 5428 5428 5428 5428 5428 5428 5426 5424 5422 5417 5414 5409 5406 5401 5396 5392 5386 5381 5374 5367 5360 5353 5345 5337